Hourly Weather Abay (Saryagashskiy rayon)

Today, 22 October, Thursday

Time Temperature Precipitation Wind Pressure Humidity
00:00 +16°C° 0 mm 2 mps 733 mmHg 21%
01:00 +15°C° 0 mm 2 mps 733 mmHg 23%
02:00 +14°C° 0 mm 2 mps 733 mmHg 24%
03:00 +13°C° 0 mm 2 mps 733 mmHg 31%
04:00 +12°C° 0 mm 3 mps 734 mmHg 39%
05:00 +12°C° 0 mm 3 mps 734 mmHg 46%
06:00 +12°C° 0 mm 3 mps 735 mmHg 47%
07:00 +12°C° 0 mm 3 mps 735 mmHg 49%
08:00 +12°C° 0 mm 3 mps 736 mmHg 51%
09:00 +13°C° 0 mm 3 mps 736 mmHg 46%
10:00 +14°C° 0 mm 3 mps 736 mmHg 42%
11:00 +17°C° 0 mm 3 mps 735 mmHg 37%
12:00 +17°C° 0 mm 3 mps 735 mmHg 35%
13:00 +18°C° 0 mm 3 mps 735 mmHg 34%
14:00 +18°C° 0 mm 3 mps 734 mmHg 32%
15:00 +18°C° 0 mm 3 mps 734 mmHg 32%
16:00 +17°C° 0 mm 3 mps 734 mmHg 33%
17:00 +16°C° 0 mm 3 mps 734 mmHg 34%
18:00 +14°C° 0 mm 3 mps 734 mmHg 36%
19:00 +12°C° 0 mm 3 mps 734 mmHg 39%
20:00 +11°C° 0 mm 3 mps 734 mmHg 42%
21:00 +10°C° 0 mm 3 mps 734 mmHg 42%
22:00 +10°C° 0 mm 3 mps 733 mmHg 42%
23:00 +9°C° 0 mm 3 mps 733 mmHg 43%

Tomorrow, 23 October, Friday

Time Temperature Precipitation Wind Pressure Humidity
00:00 +9°C° 0 mm 3 mps 733 mmHg 43%
01:00 +10°C° 0 mm 2 mps 733 mmHg 42%
02:00 +10°C° 0 mm 2 mps 733 mmHg 42%
03:00 +9°C° 0 mm 2 mps 733 mmHg 44%
04:00 +10°C° 0 mm 1 mps 734 mmHg 45%
05:00 +10°C° 0 mm 1 mps 734 mmHg 47%
06:00 +10°C° 0 mm 1 mps 734 mmHg 47%
07:00 +10°C° 0 mm 1 mps 735 mmHg 47%
08:00 +9°C° 0 mm 2 mps 735 mmHg 47%
09:00 +10°C° 0 mm 2 mps 736 mmHg 43%
10:00 +13°C° 0 mm 2 mps 736 mmHg 40%
11:00 +14°C° 0 mm 2 mps 736 mmHg 37%
12:00 +13°C° 0 mm 3 mps 736 mmHg 35%
13:00 +14°C° 0 mm 3 mps 736 mmHg 34%
14:00 +14°C° 0 mm 3 mps 736 mmHg 33%
15:00 +14°C° 0 mm 3 mps 737 mmHg 33%
16:00 +14°C° 0 mm 2 mps 737 mmHg 34%
17:00 +13°C° 0 mm 2 mps 737 mmHg 35%
18:00 +12°C° 0 mm 2 mps 738 mmHg 38%
19:00 +10°C° 0 mm 2 mps 738 mmHg 41%
20:00 +8°C° 0 mm 2 mps 739 mmHg 44%
21:00 +8°C° 0 mm 3 mps 739 mmHg 45%
22:00 +8°C° 0 mm 3 mps 738 mmHg 45%
23:00 +7°C° 0 mm 3 mps 738 mmHg 46%

Day after tomorrow, 24 October, Saturday

Time Temperature Precipitation Wind Pressure Humidity
00:00 +7°C° 0 mm 2 mps 738 mmHg 46%
01:00 +7°C° 0 mm 2 mps 738 mmHg 46%
02:00 +7°C° 0 mm 2 mps 738 mmHg 46%
03:00 +7°C° 0 mm 2 mps 738 mmHg 46%
04:00 +7°C° 0 mm 2 mps 738 mmHg 46%
05:00 +7°C° 0 mm 2 mps 738 mmHg 46%
06:00 +8°C° 0 mm 2 mps 738 mmHg 45%
07:00 +8°C° 0 mm 2 mps 738 mmHg 43%
08:00 +9°C° 0 mm 2 mps 738 mmHg 42%
09:00 +10°C° 0 mm 2 mps 738 mmHg 38%
10:00 +13°C° 0 mm 2 mps 737 mmHg 34%
11:00 +15°C° 0 mm 2 mps 737 mmHg 30%
12:00 +15°C° 0 mm 2 mps 737 mmHg 29%
13:00 +16°C° 0 mm 1 mps 737 mmHg 28%
14:00 +18°C° 0 mm 1 mps 737 mmHg 27%
15:00 +16°C° 0 mm 2 mps 737 mmHg 28%
16:00 +16°C° 0 mm 2 mps 737 mmHg 28%
17:00 +15°C° 0 mm 2 mps 737 mmHg 29%
18:00 +14°C° 0 mm 2 mps 737 mmHg 33%
19:00 +11°C° 0 mm 3 mps 737 mmHg 36%
20:00 +10°C° 0 mm 3 mps 737 mmHg 39%
21:00 +9°C° 0 mm 3 mps 737 mmHg 40%
22:00 +9°C° 0 mm 3 mps 737 mmHg 41%
23:00 +8°C° 0 mm 2 mps 737 mmHg 42%

, 25 October, Sunday

Time Temperature Precipitation Wind Pressure Humidity
00:00 +8°C° 0 mm 2 mps 737 mmHg 42%
01:00 +8°C° 0 mm 2 mps 737 mmHg 43%
02:00 +8°C° 0 mm 2 mps 737 mmHg 43%
03:00 +8°C° 0 mm 2 mps 737 mmHg 43%
04:00 +9°C° 0 mm 1 mps 737 mmHg 44%
05:00 +9°C° 0 mm 1 mps 737 mmHg 44%
06:00 +9°C° 0 mm 1 mps 737 mmHg 42%
07:00 +10°C° 0 mm 1 mps 738 mmHg 40%
08:00 +11°C° 0 mm 1 mps 738 mmHg 38%
09:00 +13°C° 0 mm 1 mps 738 mmHg 34%
10:00 +14°C° 0 mm 0 mps 738 mmHg 30%
11:00 +16°C° 0 mm 0 mps 738 mmHg 27%
12:00 +17°C° 0 mm 0 mps 737 mmHg 25%
13:00 +18°C° 0 mm 0 mps 737 mmHg 23%
14:00 +19°C° 0 mm 0 mps 737 mmHg 21%
15:00 +20°C° 0 mm 1 mps 737 mmHg 23%
16:00 +19°C° 0 mm 1 mps 737 mmHg 24%
17:00 +18°C° 0 mm 1 mps 737 mmHg 25%
18:00 +16°C° 0 mm 2 mps 737 mmHg 28%
19:00 +14°C° 0 mm 2 mps 737 mmHg 32%
20:00 +12°C° 0 mm 3 mps 737 mmHg 35%
21:00 +11°C° 0 mm 3 mps 736 mmHg 35%
22:00 +11°C° 0 mm 3 mps 736 mmHg 36%
23:00 +12°C° 0 mm 2 mps 736 mmHg 36%

25 October, Sunday

Time Temperature Precipitation Wind Pressure Humidity
00:00 +8°C° 0 mm 2 mps 737 mmHg 42%
01:00 +8°C° 0 mm 2 mps 737 mmHg 43%
02:00 +8°C° 0 mm 2 mps 737 mmHg 43%
03:00 +8°C° 0 mm 2 mps 737 mmHg 43%
04:00 +9°C° 0 mm 1 mps 737 mmHg 44%
05:00 +9°C° 0 mm 1 mps 737 mmHg 44%
06:00 +9°C° 0 mm 1 mps 737 mmHg 42%
07:00 +10°C° 0 mm 1 mps 738 mmHg 40%
08:00 +11°C° 0 mm 1 mps 738 mmHg 38%
09:00 +13°C° 0 mm 1 mps 738 mmHg 34%
10:00 +14°C° 0 mm 0 mps 738 mmHg 30%
11:00 +16°C° 0 mm 0 mps 738 mmHg 27%
12:00 +17°C° 0 mm 0 mps 737 mmHg 25%
13:00 +18°C° 0 mm 0 mps 737 mmHg 23%
14:00 +19°C° 0 mm 0 mps 737 mmHg 21%
15:00 +20°C° 0 mm 1 mps 737 mmHg 23%
16:00 +19°C° 0 mm 1 mps 737 mmHg 24%
17:00 +18°C° 0 mm 1 mps 737 mmHg 25%
18:00 +16°C° 0 mm 2 mps 737 mmHg 28%
19:00 +14°C° 0 mm 2 mps 737 mmHg 32%
20:00 +12°C° 0 mm 3 mps 737 mmHg 35%
21:00 +11°C° 0 mm 3 mps 736 mmHg 35%
22:00 +11°C° 0 mm 3 mps 736 mmHg 36%
23:00 +12°C° 0 mm 2 mps 736 mmHg 36%

26 October, Monday

Time Temperature Precipitation Wind Pressure Humidity
00:00 +12°C° 0 mm 2 mps 736 mmHg 36%
01:00 +12°C° 0 mm 2 mps 736 mmHg 35%
02:00 +10°C° 0 mm 2 mps 735 mmHg 35%
03:00 +10°C° 0 mm 2 mps 735 mmHg 35%
04:00 +10°C° 0 mm 2 mps 735 mmHg 35%
05:00 +10°C° 0 mm 2 mps 735 mmHg 35%
06:00 +10°C° 0 mm 2 mps 735 mmHg 32%
07:00 +12°C° 0 mm 2 mps 735 mmHg 30%
08:00 +12°C° 0 mm 1 mps 735 mmHg 28%
09:00 +15°C° 0 mm 1 mps 734 mmHg 23%
10:00 +19°C° 0 mm 1 mps 734 mmHg 19%
11:00 +20°C° 0 mm 0 mps 734 mmHg 15%
12:00 +23°C° 0 mm 1 mps 733 mmHg 14%
13:00 +24°C° 0 mm 1 mps 733 mmHg 13%
14:00 +25°C° 0 mm 2 mps 732 mmHg 11%
15:00 +24°C° 0 mm 2 mps 732 mmHg 13%
16:00 +21°C° 0 mm 2 mps 732 mmHg 14%
17:00 +20°C° 0 mm 2 mps 731 mmHg 15%
18:00 +19°C° 0 mm 2 mps 731 mmHg 17%
19:00 +17°C° 0 mm 2 mps 731 mmHg 19%
20:00 +15°C° 0 mm 2 mps 730 mmHg 21%
21:00 +15°C° 0 mm 2 mps 730 mmHg 21%
22:00 +14°C° 0 mm 2 mps 730 mmHg 22%
23:00 +14°C° 0 mm 2 mps 729 mmHg 22%

27 October, Tuesday

Time Temperature Precipitation Wind Pressure Humidity
00:00 +13°C° 0 mm 2 mps 729 mmHg 22%
01:00 +13°C° 0 mm 2 mps 728 mmHg 22%
02:00 +13°C° 0 mm 2 mps 728 mmHg 22%
03:00 +13°C° 0 mm 1 mps 728 mmHg 22%
04:00 +13°C° 0 mm 1 mps 728 mmHg 23%
05:00 +12°C° 0 mm 1 mps 728 mmHg 23%
06:00 +13°C° 0 mm 1 mps 728 mmHg 22%
07:00 +13°C° 0 mm 1 mps 728 mmHg 21%
08:00 +14°C° 0 mm 1 mps 728 mmHg 21%
09:00 +16°C° 0 mm 2 mps 728 mmHg 19%
10:00 +19°C° 0 mm 3 mps 728 mmHg 16%
11:00 +21°C° 0 mm 3 mps 728 mmHg 14%
12:00 +24°C° 0 mm 3 mps 728 mmHg 13%
13:00 +25°C° 0 mm 3 mps 728 mmHg 12%
14:00 +26°C° 0 mm 3 mps 728 mmHg 11%
15:00 +25°C° 0 mm 3 mps 728 mmHg 12%
16:00 +24°C° 0 mm 2 mps 728 mmHg 13%
17:00 +22°C° 0 mm 1 mps 728 mmHg 14%
18:00 +21°C° 0 mm 2 mps 728 mmHg 14%
19:00 +20°C° 0 mm 3 mps 729 mmHg 15%
20:00 +20°C° 0 mm 4 mps 730 mmHg 16%
21:00 +17°C° 0 mm 4 mps 730 mmHg 28%
22:00 +14°C° 0 mm 3 mps 731 mmHg 40%
23:00 +11°C° 0 mm 3 mps 732 mmHg 52%
Show more